Regional Weather Roundup
Issued by NWS

Home | Current Version | Previous Version | Graphics & Text | Print | Product List | Glossary On
Versions: 1 2 3 4 5 6 7 8 9 10 11 12 13 14 15 16 17 18 19 20 21 22 23 24 25 26 27 28 29 30 31 32 33 34 35 36 37 38 39 40 41 42 43 44 45 46 47 48 49 50
000
ASUS44 KMEG 182110
RWRTN
TENNESSEE HOURLY STATE WEATHER ROUNDUP
NATIONAL WEATHER SERVICE MEMPHIS TN
300 PM CST SUN FEB 18 2018

TNZ002-004-019-021-049-052-054-088>092-182200-
WEST TENNESSEE

CITY           SKY/WX    TMP DP  RH WIND       PRES   REMARKS
MEMPHIS INTL   LGT RAIN  59  43  55 S9        30.11F
NWS MEMPHIS      N/A     59 N/A N/A MISG        N/A
JACKSON        FAIR      61  34  36 SE10      30.11F
DYERSBURG      FAIR      57  35  43 S7        30.13S
COVINGTON      PTSUNNY   59  39  47 VRB7      30.12S
UNION CITY     SUNNY     55  34  44 SE10      30.10F
BOLIVAR        PTSUNNY   61  39  44 SE10G17   30.11F
PARIS          SUNNY     55  32  41 SE8       30.12F
HUNTINGDON     SUNNY     59  32  36 SE7       30.12F
LEXINGTON      SUNNY     61  28  29 SE9       30.13F
SELMER         MOSUNNY   61  36  39 S8        30.13F
SAVANNAH       PTSUNNY   61  39  44 S10       30.13F
$$

TNZ008-025-027-028-033-062-065-066-182200-
NORTH MIDDLE TENNESSEE

CITY           SKY/WX    TMP DP  RH WIND       PRES   REMARKS
NASHVILLE      PTSUNNY   60  30  32 VRB5      30.17F
PORTLAND       SUNNY     55  34  44 VRB7G14   30.17F
CLARKSVILLE    FAIR      55  29  36 SE10      30.16F
SMYRNA         FAIR      60  32  34 SE9       30.18F
COOKEVILLE     SUNNY     61  32  33 S9        30.18S
GALLATIN       SUNNY     57  34  41 VRB7      30.20F
CROSSVILLE     FAIR      57  30  35 VRB5      30.20F
$$

TNZ061-075-076-078-094-096-097-182200-
SOUTH MIDDLE TENNESSEE

CITY           SKY/WX    TMP DP  RH WIND       PRES   REMARKS
FAYETTEVILLE   SUNNY     64  36  34 S14       30.16F
TULLAHOMA      SUNNY     63  34  34 S3G13     30.16F
WINCHESTER     SUNNY     64  32  29 S6        30.17F
MCMINNVILLE    SUNNY     63  32  31 CALM      30.17S
COLUMBIA       SUNNY     61  30  31 SE6       30.14F
SHELBYVILLE    SUNNY     61  37  41 S7        30.17F
$$

TNZ017-018-042-046-047-182200-
NORTHEAST TENNESSEE

CITY           SKY/WX    TMP DP  RH WIND       PRES   REMARKS
TRI CITIES     FAIR      60  35  39 N6        30.22F
ELIZABETHTON   FAIR      61  37  41 VRB3      30.21F
$$

TNZ012-013-036-069-073-074-182200-
CENTRAL EAST TENNESSEE

CITY           SKY/WX    TMP DP  RH WIND       PRES   REMARKS
KNOXVILLE      CLOUDY    59  38  45 VRB3      30.20F
OAK RIDGE      FAIR      60  36  40 CALM      30.22F
DOWNTOWN KNOXV SUNNY     61  37  41 VRB6      30.22F
GATLINBURG     SUNNY     59  39  47 N5        30.21F
MORRISTOWN     SUNNY     57  34  41 VRB6      30.21S
$$

TNZ083-085-099-182200-
SOUTHEAST TENNESSEE

CITY           SKY/WX    TMP DP  RH WIND       PRES   REMARKS
CHATTANOOGA    PTSUNNY   63  36  36 CALM      30.20F
$$

SKY/WX REPORTED AS FAIR MEANS FEW OR NO CLOUDS BELOW
12 THOUSAND FEET.





USA.gov is the U.S. government's official web portal to all federal, state and local government web resources and services.